Location: Roland
(31.1349°N, 85.4372°W)
Time: 01:44:08
(UTC+00:00)

Vanguard 1 Rocket - Pass Details

Date: 08 October 2022
Orbit: 650 x 4225 km, 34.3° (Epoch: 06 December)

Event Time Altitude Azimuth Distance (km) Brightness Sun altitude
Rises 04:07:30 0° 283° (WNW) 7,402 12.4 -58.3°
Reaches altitude 10° 04:13:15 10° 284° (WNW) 5,854 11.7 -59.1°
Enters shadow 04:21:21 32° 286° (WNW) 3,504 10.3 -60.1°
